[TLELIST] Archives

 

[list_settings.list_name] Current TLEs

December 15th 2013 PST

HST 1 20580U 90037B 13348.55581326 .00003768 00000-0 25161-3 0 3949 2 20580 028.4684 169.8776 0003345 109.4059 287.3663 15.04349396 96875 ISS (ZARYA) 1 25544U 98067A 13349.27096979 .00021744 00000-0 39182-3 0 2389 2 25544 051.6503 291.0938 0004662 272.9481 178.3636 15.49708058862798 CXO 1 25867U 99040B 13350.40800502 -.00000701 00000-0 00000+0 0 9719 2 25867 076.3428 329.3184 8361238 276.0983 359.9378 00.37799930 11223 ____________________________________________________________________ These 2-Line ...Continue Reading

[list_settings.list_name] Current TLEs

December 14th 2013 PST

HST 1 20580U 90037B 13346.97999410 .00003564 00000-0 23742-3 0 3936 2 20580 028.4684 180.2195 0003395 093.9232 031.9466 15.04337654 96645 ISS (ZARYA) 1 25544U 98067A 13348.24975299 -.00010815 00000-0 -18391-3 0 2317 2 25544 051.6506 296.1516 0004898 262.9082 247.4134 15.49660632862635 CXO 1 25867U 99040B 13350.40800502 -.00000701 00000-0 00000+0 0 9719 2 25867 076.3428 329.3184 8361238 276.0983 359.9378 00.37799930 11223 ____________________________________________________________________ These 2-Line ...Continue Reading

[list_settings.list_name] Current TLEs

December 13th 2013 PST

HST 1 20580U 90037B 13346.97999410 .00003564 00000-0 23742-3 0 3936 2 20580 028.4684 180.2195 0003395 093.9232 031.9466 15.04337654 96645 ISS (ZARYA) 1 25544U 98067A 13347.41068598 .00030921 00000-0 53946-3 0 2267 2 25544 051.6510 300.3037 0001440 246.7542 258.9412 15.50427813862503 CXO 1 25867U 99040B 13350.40800502 -.00000701 00000-0 00000+0 0 9719 2 25867 076.3428 329.3184 8361238 276.0983 359.9378 00.37799930 11223 ____________________________________________________________________ These 2-Line ...Continue Reading

[list_settings.list_name] Current TLEs

December 12th 2013 PST

HST 1 20580U 90037B 13345.85210262 .00002732 00000-0 17922-3 0 3921 2 20580 028.4686 187.6222 0003448 081.8568 043.7379 15.04333040 96476 ISS (ZARYA) 1 25544U 98067A 13346.43485072 .00058392 00000-0 10086-2 0 2201 2 25544 051.6485 305.1401 0001723 236.6543 218.8844 15.50416964862357 CXO 1 25867U 99040B 13347.76407767 -.00000884 00000-0 00000+0 0 9701 2 25867 076.3333 329.4637 8364028 276.1285 359.9762 00.37801058 11219 ____________________________________________________________________ These 2-Line ...Continue Reading

[list_settings.list_name] Current TLEs

December 11th 2013 PST

HST 1 20580U 90037B 13343.99791382 .00002900 00000-0 19100-3 0 3917 2 20580 028.4688 199.7918 0003554 063.1023 081.1701 15.04323098 96197 ISS (ZARYA) 1 25544U 98067A 13345.46812736 .00015419 00000-0 26848-3 0 2122 2 25544 051.6506 309.9332 0001729 123.0639 332.8040 15.50951540862200 CXO 1 25867U 99040B 13347.76407767 -.00000884 00000-0 00000+0 0 9701 2 25867 076.3333 329.4637 8364028 276.1285 359.9762 00.37801058 11219 ____________________________________________________________________ These 2-Line ...Continue Reading

[list_settings.list_name] Current TLEs

December 10th 2013 PST

HST 1 20580U 90037B 13343.99791382 .00002900 00000-0 19100-3 0 3917 2 20580 028.4688 199.7918 0003554 063.1023 081.1701 15.04323098 96197 ISS (ZARYA) 1 25544U 98067A 13344.50073041 .00015655 00000-0 27277-3 0 2055 2 25544 051.6518 314.7295 0001510 116.4477 334.5151 15.50920147862053 CXO 1 25867U 99040B 13345.12024190 -.00000913 00000-0 00000+0 0 9695 2 25867 076.3323 329.5723 8368453 276.1704 000.0435 00.37802581 11209 ____________________________________________________________________ These 2-Line ...Continue Reading

[list_settings.list_name] Current TLEs

December 9th 2013 PST

HST 1 20580U 90037B 13342.86116394 .00003026 00000-0 19991-3 0 3903 2 20580 028.4690 207.2508 0003502 053.1603 042.8379 15.04317898 96013 ISS (ZARYA) 1 25544U 98067A 13343.08821337 .00015048 00000-0 26296-3 0 1961 2 25544 051.6512 321.7367 0001379 111.3385 007.9998 15.50872535861832 CXO 1 25867U 99040B 13345.12024190 -.00000913 00000-0 00000+0 0 9695 2 25867 076.3323 329.5723 8368453 276.1704 000.0435 00.37802581 11209 ____________________________________________________________________ These 2-Line ...Continue Reading

[list_settings.list_name] Current TLEs

December 8th 2013 PST

HST 1 20580U 90037B 13341.79658882 .00002954 00000-0 19489-3 0 3896 2 20580 028.4691 214.2366 0003437 042.9700 036.4202 15.04309615 95858 ISS (ZARYA) 1 25544U 98067A 13342.31863976 .00013656 00000-0 23963-3 0 1917 2 25544 051.6511 325.5536 0001441 106.4403 033.4468 15.50844934861712 CXO 1 25867U 99040B 13342.47463597 -.00000719 00000-0 00000+0 0 9838 2 25867 076.3246 329.6976 8374974 276.1966 359.9385 00.37802892 11192 ____________________________________________________________________ These 2-Line ...Continue Reading

[list_settings.list_name] Current TLEs

December 7th 2013 PST

HST 1 20580U 90037B 13340.14776047 .00002743 00000-0 18015-3 0 3887 2 20580 028.4692 225.0565 0003410 026.6498 105.8953 15.04301127 95612 ISS (ZARYA) 1 25544U 98067A 13341.41930148 .00012802 00000-0 22537-3 0 1832 2 25544 051.6512 330.0156 0001485 104.7851 050.7805 15.50818078861579 CXO 1 25867U 99040B 13342.47463597 -.00000719 00000-0 00000+0 0 9838 2 25867 076.3246 329.6976 8374974 276.1966 359.9385 00.37802892 11192 ____________________________________________________________________ These 2-Line ...Continue Reading

[list_settings.list_name] Current TLEs

December 6th 2013 PST

HST 1 20580U 90037B 13340.14776047 .00002743 00000-0 18015-3 0 3887 2 20580 028.4692 225.0565 0003410 026.6498 105.8953 15.04301127 95612 ISS (ZARYA) 1 25544U 98067A 13340.45369823 .00012650 00000-0 22299-3 0 1758 2 25544 051.6502 334.8012 0001332 106.4691 054.6712 15.50792049861426 CXO 1 25867U 99040B 13342.47463597 -.00000719 00000-0 00000+0 0 9838 2 25867 076.3246 329.6976 8374974 276.1966 359.9385 00.37802892 11192 ____________________________________________________________________ These 2-Line ...Continue Reading
  • This mailing list is a public mailing list - anyone may join or leave, at any time.
  • This mailing list is announce-only.

International Space Station (ISS) / Hubble Space Telescope (HST) / Chandra X-Ray Observatory Orbital Data via EMAIL

Privacy Policy:

Private list